Waarnemingen

Advertentie
Mijn weer
Fehmarn, Duitsland (10055): temperatuur & dauwpunt: 15.02.2018 02:00:00 - 21.02.2018 02:00:00 (CET)Fehmarn, Duitsland (10055): temperatuur 5cm & temperatuur -5cm: 15.02.2018 02:00:00 - 21.02.2018 02:00:00 (CET)Fehmarn, Duitsland (10055): temperatuur -20cm & temperatuur -100cm: 15.02.2018 02:00:00 - 21.02.2018 02:00:00 (CET)Fehmarn, Duitsland (10055): windsnelheid & windstoten: 15.02.2018 02:00:00 - 21.02.2018 02:00:00 (CET)Fehmarn, Duitsland (10055): windrichting: 15.02.2018 02:00:00 - 21.02.2018 02:00:00 (CET)Fehmarn, Duitsland (10055): luchtdruk: 15.02.2018 02:00:00 - 21.02.2018 02:00:00 (CET)Fehmarn, Duitsland (10055): zicht: 15.02.2018 02:00:00 - 21.02.2018 02:00:00 (CET)Fehmarn, Duitsland (10055): Zonneschijnduur: 15.02.2018 02:00:00 - 21.02.2018 02:00:00 (CET)Fehmarn, Duitsland (10055): neerslag: 15.02.2018 02:00:00 - 21.02.2018 02:00:00 (CET)
Datum & Tijd tt [°C] td [°C] tt 5cm [°C] tt -5cm [°C] tt -20cm [°C] tt -100cm [°C] ff [km/u] ff [kn] fx [km/u] fx [kn] dd ppp [hPa] vv [km] sd [min] rr [mm]
21.02.2018 02:00:00 0,4 -2,4 -2,0 0,1 1,6 3,8 12 6 19 10 ONO 1027,0 19 0 0,0
21.02.2018 01:00:00 0,5 -2,3 -2,5 0,2 1,7 3,8 12 6 16 9 ONO 1027,0 22 0 0,0
21.02.2018 00:00:00 1,0 -2,2 -1,3 0,3 1,8 3,8 14 7 22 12 O 1026,7 22 0 0,0
20.02.2018 23:00:00 1,1 -2,5 -0,7 0,3 1,9 3,7 18 10 23 12 ONO 1026,3 24 0 0,0
20.02.2018 22:00:00 1,2 -2,5 -0,4 0,4 2,0 3,7 18 10 24 13 ONO 1026,0 22 0 0,0
20.02.2018 21:00:00 1,3 -3,8 -0,5 0,5 2,2 3,7 18 10 30 16 O 1025,6 22 0 0,0
20.02.2018 20:00:00 1,5 -4,5 0,1 0,6 2,4 3,7 21 12 34 18 O 1025,1 21 0 0,0
20.02.2018 19:00:00 2,0 -4,4 0,5 0,4 2,6 3,7 26 14 34 18 O 1024,5 24 0 0,0
20.02.2018 18:00:00 1,8 -4,1 0,2 1,2 2,8 3,7 21 11 31 17 O 1024,2 22 1 0,0
20.02.2018 17:00:00 2,4 -2,3 1,2 2,5 2,8 3,7 22 12 31 17 O 1023,7 16 60 0,0
20.02.2018 16:00:00 3,0 -3,1 2,6 3,3 2,8 3,7 22 12 31 17 O 1023,4 14 60 0,0
20.02.2018 15:00:00 3,2 -2,4 3,4 4,2 2,5 3,7 24 13 33 18 O 1023,2 12 60 0,0
20.02.2018 14:00:00 3,5 -1,4 4,3 4,8 2,2 3,7 23 12 32 18 O 1023,2 13 60 0,0
20.02.2018 13:00:00 3,3 -1,1 4,5 4,4 1,8 3,7 23 12 31 17 O 1023,0 8 60 0,0
20.02.2018 12:00:00 2,8 -1,8 3,8 3,2 1,6 3,7 22 12 31 17 O 1022,9 6 60 0,0
20.02.2018 11:00:00 2,5 -1,2 3,3 1,0 1,5 3,7 20 11 28 15 O 1022,8 6 28 0,0
20.02.2018 10:00:00 1,5 -0,8 1,2 0,2 1,6 3,7 16 9 27 15 O 1022,6 6 30 0,0
20.02.2018 09:00:00 0,7 -0,8 -0,4 0,2 1,6 3,7 13 7 19 10 O 1022,1 4,3 17 0,0
20.02.2018 08:00:00 0,1 -0,7 -1,3 0,3 1,7 3,7 12 7 16 9 O 1021,7 3,2 0 0,0
20.02.2018 07:00:00 0,5 -0,3 -1,1 0,3 1,8 3,7 12 7 19 10 O 1021,3 3,0 0 0,0
20.02.2018 06:00:00 0,2 -0,4 -1,3 0,4 1,9 3,7 13 7 15 8 O 1021,1 2,9 0 0,0
20.02.2018 05:00:00 0,6 -0,2 -1,0 0,6 2,0 3,7 12 6 15 8 O 1020,9 3,4 0 0,0
20.02.2018 04:00:00 1,7 0,7 1,0 1,1 2,1 3,7 12 6 16 8 O 1020,8 3,1 0 0,0
20.02.2018 03:00:00 1,4 0,6 0,6 1,2 2,2 3,7 5 3 10 5 O 1020,6 2,4 0 0,0
20.02.2018 02:00:00 1,7 0,6 0,7 1,3 2,2 3,7 8 4 9 5 OZO 1020,6 3,0 0 0,0
20.02.2018 01:00:00 1,5 0,4 0,8 1,4 2,3 3,7 7 4 11 6 O 1020,5 3,1 0 0,0
20.02.2018 00:00:00 1,9 1,0 1,4 1,5 2,4 3,7 10 5 13 7 ZO 1020,1 2,8 0 0,0
19.02.2018 23:00:00 2,4 1,6 1,8 1,5 2,5 3,7 10 5 14 7 O 1020,1 2,8 0 0,0
19.02.2018 22:00:00 1,7 0,5 0,8 1,8 2,6 3,7 6 3 11 6 O 1020,0 2,2 0 0,0
19.02.2018 21:00:00 2,4 0,9 1,9 2,0 2,7 3,7 10 5 12 6 OZO 1020,1 3,0 0 0,0
19.02.2018 20:00:00 2,1 0,8 1,7 2,0 2,8 3,7 7 4 12 6 ZO 1020,0 3,6 0 0,0
19.02.2018 19:00:00 2,2 1,0 0,8 2,5 2,9 3,7 7 4 8 5 OZO 1019,9 3,5 0 0,0
19.02.2018 18:00:00 2,8 1,5 1,6 3,1 3,0 3,7 5 3 9 5 ZO 1019,7 3,3 0 0,0
19.02.2018 17:00:00 3,5 1,0 3,1 4,1 2,9 3,7 5 3 8 4 ZO 1019,8 5 0 0,0
19.02.2018 16:00:00 3,5 0,8 3,8 4,6 2,7 3,7 5 3 8 5 O 1019,7 5 0 0,0
19.02.2018 15:00:00 3,1 0,0 3,6 4,7 2,5 3,7 4 2 8 4 ONO 1020,0 5 0 0,0
19.02.2018 14:00:00 3,1 0,4 4,0 5,1 2,2 3,7 6 3 13 7 NW 1020,2 6 0 0,0
19.02.2018 13:00:00 3,3 0,1 5,1 4,6 1,8 3,7 6 3 13 7 W 1020,2 6 2 0,0
19.02.2018 12:00:00 3,5 -0,3 4,4 3,7 1,4 3,6 8 4 17 9 ZW 1020,4 6 1 0,0
19.02.2018 11:00:00 2,8 -0,6 4,1 2,2 1,3 3,6 10 5 16 8 ZW 1020,7 8 38 0,0
19.02.2018 10:00:00 1,8 -0,8 2,2 0,1 1,3 3,6 6 3 9 5 Z 1020,9 8 5 0,0
19.02.2018 09:00:00 1,1 -1,2 0,2 0,1 1,3 3,6 6 3 10 5 Z 1021,1 8 0 0,0
19.02.2018 08:00:00 0,9 -1,5 -0,1 0,1 1,4 3,6 8 4 13 7 Z 1020,9 9 0 0,0
19.02.2018 07:00:00 0,9 -1,7 -0,1 0,2 1,4 3,6 8 5 13 7 Z 1021,0 10 0 0,0
19.02.2018 06:00:00 1,0 -1,8 0,0 0,2 1,5 3,6 9 5 13 7 Z 1021,1 12 0 0,0
19.02.2018 05:00:00 0,7 -1,8 -0,1 0,2 1,5 3,6 10 5 15 8 Z 1021,5 13 0 0,0
19.02.2018 04:00:00 1,1 -1,9 0,2 0,2 1,6 3,6 10 5 16 9 Z 1021,7 15 0 0,0
19.02.2018 03:00:00 1,3 -1,9 0,4 0,2 1,7 3,6 11 6 17 9 Z 1022,3 17 0 0,0
19.02.2018 02:00:00 1,7 -1,7 0,8 0,3 1,8 3,6 13 7 21 11 Z 1022,7 19 0 0,0
19.02.2018 01:00:00 1,6 -1,6 0,7 0,5 1,9 3,6 13 7 18 10 Z 1023,3 18 0 0,0
19.02.2018 00:00:00 2,0 -1,8 1,2 0,6 2,0 3,6 12 7 21 11 Z 1023,8 21 0 0,0
18.02.2018 23:00:00 2,4 -1,6 1,5 0,8 2,1 3,6 13 7 22 12 Z 1024,2 27 0 0,0
18.02.2018 22:00:00 2,3 -1,5 1,5 0,8 2,3 3,6 13 7 18 10 Z 1024,5 36 0 0,0
18.02.2018 21:00:00 1,9 -1,1 0,9 0,9 2,4 3,6 11 6 14 7 Z 1024,7 33 0 0,0
18.02.2018 20:00:00 1,9 -1,2 0,9 1,1 2,6 3,6 10 5 14 8 Z 1025,3 29 0 0,0
18.02.2018 19:00:00 1,8 -1,4 -0,2 1,4 2,8 3,6 9 5 15 8 ZZO 1025,6 29 0 0,0
18.02.2018 18:00:00 3,3 -2,0 1,7 2,2 2,9 3,6 9 5 16 9 ZZW 1025,9 40 0 0,0
18.02.2018 17:00:00 4,0 -1,4 3,0 3,5 2,9 3,6 8 4 16 9 ZZW 1026,2 37 4 0,0
18.02.2018 16:00:00 4,0 -1,0 3,6 4,1 2,8 3,6 10 6 21 11 ZW 1026,5 40 0 0,0
18.02.2018 15:00:00 4,5 -2,5 4,8 4,6 2,6 3,6 16 8 22 12 ZW 1026,6 35 24 0,0
18.02.2018 14:00:00 4,6 -2,6 5,2 4,8 2,3 3,6 15 8 27 15 ZW 1027,2 41 12 0,0
18.02.2018 13:00:00 4,1 -2,9 4,8 4,6 2,0 3,5 16 9 27 15 Z 1027,7 31 35 0,0
18.02.2018 12:00:00 3,5 -2,6 4,0 3,2 1,8 3,5 16 9 27 14 ZZW 1028,3 43 0 0,0
18.02.2018 11:00:00 3,2 -2,7 3,4 2,2 1,7 3,5 12 6 23 13 ZZW 1028,3 47 0 0,0
18.02.2018 10:00:00 3,0 -2,8 3,0 1,7 1,6 3,5 16 8 24 13 Z 1028,1 50 0 0,0
18.02.2018 09:00:00 2,8 -2,8 2,4 0,9 1,6 3,5 14 7 21 11 Z 1028,1 42 0 0,0
18.02.2018 08:00:00 1,9 -2,1 1,1 0,6 1,7 3,5 8 4 15 8 Z 1028,2 41 0 0,0
18.02.2018 07:00:00 2,1 -2,8 1,2 0,5 1,8 3,5 9 5 15 8 Z 1028,0 46 0 0,0
18.02.2018 06:00:00 2,6 -3,6 0,8 0,9 1,9 3,5 6 4 13 7 ZZW 1027,8 53 0 0,0
18.02.2018 05:00:00 2,9 -3,2 1,8 1,1 1,9 3,5 6 3 13 7 ZZW 1027,6 45 0 0,0
18.02.2018 04:00:00 3,0 -2,9 1,9 1,1 2,0 3,5 7 4 13 7 ZZW 1027,7 70 0 0,0
18.02.2018 03:00:00 3,2 -3,1 1,9 1,2 2,0 3,5 6 4 16 9 WZW 1027,7 70 0 0,0
18.02.2018 02:00:00 3,6 -3,8 2,5 1,3 2,1 3,5 10 5 18 10 WZW 1027,7 70 0 0,0
18.02.2018 01:00:00 3,0 -0,9 1,9 1,4 2,2 3,5 9 5 13 7 WZW 1027,6 64 0 0,0
18.02.2018 00:00:00 3,4 -1,6 2,4 1,4 2,2 3,5 6 4 15 8 W 1027,2 70 0 0,0
17.02.2018 23:00:00 3,1 -1,4 1,6 1,5 2,3 3,5 4 2 13 7 W 1027,0 70 0 0,0
17.02.2018 22:00:00 3,3 -2,0 2,0 1,5 2,5 3,5 9 5 11 6 WZW 1026,4 70 0 0,0
17.02.2018 21:00:00 3,3 -2,1 1,3 1,7 2,6 3,5 4 2 10 6 ZW 1026,1 59 0 0,0
17.02.2018 20:00:00 3,5 -1,0 2,4 2,0 2,7 3,5 9 5 13 7 NW 1025,9 70 0 0,0
17.02.2018 19:00:00 3,6 -1,1 2,7 2,3 2,8 3,5 8 4 13 7 WNW 1025,8 63 0 0,0
17.02.2018 18:00:00 4,0 -2,0 3,0 2,6 2,9 3,5 12 6 16 9 WNW 1025,4 67 0 0,0
17.02.2018 17:00:00 4,2 -2,9 3,2 3,6 2,9 3,5 8 4 14 8 NNW 1025,1 68 0 0,0
17.02.2018 16:00:00 3,7 1,0 3,7 4,3 2,8 3,5 9 5 11 6 WNW 1025,0 29 0 0,0
17.02.2018 15:00:00 3,3 2,0 3,7 4,7 2,6 3,5 12 7 15 8 WNW 1024,7 11 0 0,0
17.02.2018 14:00:00 3,6 2,3 4,3 4,7 2,3 3,5 11 6 16 8 W 1024,6 11 0 0,0
17.02.2018 13:00:00 3,2 2,0 4,2 4,3 2,1 3,5 10 5 11 6 W 1024,8 8 0 0,0
17.02.2018 12:00:00 3,1 2,1 3,8 3,7 1,9 3,5 9 5 16 8 W 1024,9 8 0 0,0
17.02.2018 11:00:00 2,8 2,1 3,1 2,9 1,7 3,5 14 8 17 9 W 1024,6 7 0 0,0
17.02.2018 10:00:00 3,0 2,4 3,0 2,3 1,6 3,5 9 5 15 8 WZW 1024,7 6 0 0,0
17.02.2018 09:00:00 2,8 2,2 2,5 1,7 1,6 3,5 10 6 14 8 ZW 1024,6 9 0 0,0
17.02.2018 08:00:00 2,6 2,1 2,0 1,5 1,6 3,5 13 7 27 15 W 1024,6 6 0 0,0
17.02.2018 07:00:00 2,7 2,3 2,2 1,5 1,6 3,5 21 12 29 15 W 1024,5 7 0 0,0
17.02.2018 06:00:00 2,6 2,2 2,1 1,5 1,6 3,5 22 12 29 16 W 1024,4 7 0 0,0
17.02.2018 05:00:00 2,6 2,1 2,1 1,4 1,6 3,5 22 12 28 15 W 1024,4 7 0 0,0
17.02.2018 04:00:00 2,8 2,3 2,2 1,4 1,6 3,5 22 12 35 19 W 1024,6 9 0 0,0
17.02.2018 03:00:00 3,0 2,4 2,2 1,3 1,7 3,5 27 15 34 18 W 1024,8 12 0 0,0
17.02.2018 02:00:00 3,0 2,4 2,0 1,5 1,7 3,5 27 14 35 19 W 1024,5 12 0 0,0
17.02.2018 01:00:00 3,2 2,5 2,7 1,8 1,6 3,5 27 15 42 23 W 1024,2 10 0 0,3
17.02.2018 00:00:00 3,4 2,3 2,9 1,9 1,6 3,5 31 17 40 22 W 1023,9 15 0 0,0
16.02.2018 23:00:00 3,4 2,2 2,9 1,9 1,6 3,5 32 17 42 23 W 1023,7 12 0 0,0
16.02.2018 22:00:00 3,5 2,2 3,0 1,9 1,5 3,5 34 19 46 25 W 1023,1 16 0 0,1
16.02.2018 21:00:00 3,6 2,2 3,2 1,8 1,5 3,5 37 20 46 25 W 1022,7 17 0 0,0
16.02.2018 20:00:00 3,6 2,1 3,0 1,4 1,5 3,5 33 18 43 23 WZW 1022,5 17 0 0,0
16.02.2018 19:00:00 3,7 1,9 2,7 1,7 1,5 3,5 35 19 48 26 WZW 1022,0 20 0 0,0
16.02.2018 18:00:00 3,9 1,9 3,4 2,2 1,4 3,5 37 20 51 27 W 1021,4 22 0 0,0
16.02.2018 17:00:00 4,0 1,9 3,7 2,4 1,2 3,5 37 20 46 25 W 1020,8 21 21 0,0
16.02.2018 16:00:00 4,4 1,6 4,0 2,5 0,9 3,5 34 19 42 23 WZW 1020,4 23 16 0,0
16.02.2018 15:00:00 4,5 1,8 4,9 1,7 0,5 3,5 32 18 41 22 WZW 1020,1 21 55 0,0
16.02.2018 14:00:00 4,7 1,9 4,9 0,5 0,4 3,5 32 17 40 22 WZW 1019,8 16 55 0,0
16.02.2018 13:00:00 4,6 2,0 5,2 -0,2 0,4 3,5 30 16 36 20 WZW 1019,5 16 60 0,0
16.02.2018 12:00:00 3,8 1,8 4,3 -0,3 0,4 3,5 24 13 39 21 WZW 1019,2 15 47 0,0
16.02.2018 11:00:00 3,2 1,3 3,6 -0,3 0,4 3,5 27 14 41 22 WZW 1018,6 13 29 0,0
16.02.2018 10:00:00 2,7 0,9 2,6 -0,3 0,4 3,5 29 15 41 22 WZW 1018,0 17 48 0,0
16.02.2018 09:00:00 2,4 0,6 1,8 -0,3 0,4 3,5 29 16 40 21 WZW 1017,2 15 29 0,0
16.02.2018 08:00:00 2,0 0,4 0,5 -0,3 0,4 3,5 26 14 37 20 WZW 1016,6 14 0 0,0
16.02.2018 07:00:00 2,3 0,5 0,7 -0,3 0,4 3,5 31 17 41 22 WZW 1015,8 16 0 0,0
16.02.2018 06:00:00 2,3 0,6 0,8 -0,3 0,4 3,5 31 17 42 23 WZW 1015,3 17 0 0,0
16.02.2018 05:00:00 2,4 0,9 0,9 -0,3 0,4 3,5 27 15 37 20 WZW 1015,0 18 0 0,0
16.02.2018 04:00:00 2,4 0,9 0,7 -0,3 0,4 3,5 27 14 34 19 WZW 1014,4 13 0 0,0
16.02.2018 03:00:00 2,4 1,2 0,9 -0,3 0,4 3,5 20 11 35 19 WZW 1013,9 9 0 0,0
16.02.2018 02:00:00 2,3 1,8 1,1 -0,3 0,4 3,5 26 14 40 22 WZW 1013,5 4,2 0 0,0
16.02.2018 01:00:00 2,4 2,1 1,8 -0,3 0,4 3,5 29 15 40 22 WZW 1013,1 2,5 0 0,0
16.02.2018 00:00:00 2,1 1,6 1,5 -0,3 0,4 3,5 19 11 35 19 ZW 1012,6 3,1 0 0,0
15.02.2018 23:00:00 1,5 1,0 0,9 -0,3 0,4 3,5 21 11 31 17 ZZW 1012,2 3,9 0 0,0
15.02.2018 22:00:00 0,6 0,0 0,2 -0,3 0,4 3,5 22 12 33 18 Z 1011,9 3,9 0 0,2
15.02.2018 21:00:00 0,4 0,0 0,0 -0,3 0,3 3,5 24 13 38 21 Z 1011,8 1,7 0 0,6
15.02.2018 20:00:00 0,6 -0,5 0,1 -0,3 0,3 3,5 28 15 49 27 Z 1012,1 4,0 0 0,0
15.02.2018 19:00:00 0,6 -0,8 0,0 -0,3 0,3 3,5 35 19 53 29 ZZO 1011,9 4,3 0 0,2
15.02.2018 18:00:00 0,8 -1,1 0,3 -0,3 0,3 3,5 29 16 51 27 Z 1012,7 4,1 0 0,0
15.02.2018 17:00:00 0,6 -0,9 0,1 -0,3 0,3 3,5 36 19 53 29 ZZO 1012,4 4,5 0 0,0
15.02.2018 16:00:00 0,7 -1,8 0,4 -0,3 0,3 3,5 41 22 63 34 ZZO 1012,7 4,3 0 0,0
15.02.2018 15:00:00 1,4 -3,1 1,2 -0,3 0,3 3,5 38 20 57 31 ZZO 1013,1 8 0 0,0
15.02.2018 14:00:00 1,3 -3,1 1,1 -0,3 0,3 3,6 32 17 56 31 ZZO 1013,5 9 0 0,0
15.02.2018 13:00:00 1,1 -3,7 1,0 -0,3 0,3 3,6 40 22 58 31 ZZO 1013,4 10 0 0,0
15.02.2018 12:00:00 1,0 -3,8 1,0 -0,4 0,3 3,6 38 21 59 32 ZZO 1014,7 10 0 0,0
15.02.2018 11:00:00 0,6 -3,4 0,7 -0,4 0,3 3,6 33 18 50 27 ZZO 1015,8 9 2 0,0
15.02.2018 10:00:00 0,1 -3,5 0,1 -0,5 0,3 3,6 35 19 53 28 ZO 1016,2 8 0 0,0
15.02.2018 09:00:00 -0,3 -3,6 -0,6 -0,6 0,3 3,6 31 17 49 26 ZZO 1017,0 8 0 0,0
15.02.2018 08:00:00 -0,3 -3,8 -0,9 -0,6 0,3 3,6 26 14 44 24 ZZO 1017,4 8 0 0,0
15.02.2018 07:00:00 0,0 -3,4 -0,5 -0,6 0,3 3,6 24 13 46 25 ZZO 1017,4 8 0 0,0
15.02.2018 06:00:00 0,3 -3,2 -0,2 -0,5 0,3 3,6 32 17 51 28 ZZO 1017,3 8 0 0,0
15.02.2018 05:00:00 0,5 -3,1 -0,1 -0,5 0,3 3,6 32 18 50 27 ZZO 1018,0 8 0 0,0
15.02.2018 04:00:00 0,6 -3,0 -0,1 -0,4 0,3 3,6 29 15 42 23 ZZO 1018,6 10 0 0,0
15.02.2018 03:00:00 0,9 -2,9 0,0 -0,4 0,3 3,6 26 14 43 23 ZZO 1019,1 13 0 0,0
15.02.2018 02:00:00 0,7 -2,7 -0,3 -0,3 0,3 3,6 21 11 39 21 ZZO 1020,2 14 0 0,0

tt = temperatuur
td = dauwpunt
tt 5cm = temperatuur 5cm
tt -5cm = temperatuur -5cm
tt -20cm = temperatuur -20cm
tt -100cm = temperatuur -100cm
ff = windsnelheid
fx = windstoten
dd = windrichting
ppp = luchtdruk
vv = zicht
sd = Zonneschijnduur
rr = neerslag

Weerstations in de omgeving